GOES 17

Last updated on Mon Sep 07 2026 00:02:40 GMT+0000 (Coordinated Universal Time)

1 43226U 18022A 26249.57405492 -.00000199 00000+0 00000+0 0 9997 2 43226 1.1402 84.3390 0000941 135.9937 242.4813 1.00272980 31248
UTC large
Height (km)
Speed (km/s)
/
Latitude / Longitude
Inclination (degrees)
Orbital Period (minutes)
Azimuth
Elevation
Range (km)
Doppler Factor

Next 0 passes for location: London (51.5072 / 0.1276)

No passes found over London.
GOES 17